Regional Weather Roundup
Issued by NWS

Home | Current Version | Previous Version | Graphics & Text | Print | Product List | Glossary On
Versions: 1 2 3 4 5 6 7 8 9 10 11 12 13 14 15 16 17 18 19 20 21 22 23 24 25 26 27 28 29 30 31 32 33 34 35 36 37 38 39 40 41 42 43 44 45 46 47 48 49 50
000
ASUS43 KFSD 190410
RWRSD

WEATHER ROUNDUP FOR SOUTH DAKOTA
NATIONAL WEATHER SERVICE SIOUX FALLS SD
1100 PM CDT SAT APR 18 2015

NOTE: "FAIR" INDICATES FEW OR NO CLOUDS BELOW 12,000 FEET WITH NO
SIGNIFICANT WEATHER AND/OR OBSTRUCTIONS TO VISIBILITY.


SDZ001>005-009-010-012>017-190500-
NORTHWEST AND NORTH CENTRAL SOUTH DAKOTA

CITY           SKY/WX    TMP DP  RH WIND       PRES   REMARKS
BUFFALO          N/A     47  34  60 N17       29.95R
FAITH            N/A     46  44  93 NW7       29.94F
MOBRIDGE       LGT RAIN  49  46  90 N16       29.85F
$$

SDZ012>016-024>037-041>051-057-063-072>074-190500-
SOUTHWEST AND SOUTH CENTRAL SOUTH DAKOTA

CITY           SKY/WX    TMP DP  RH WIND       PRES   REMARKS
RAPID CTY ARPT RAIN      46  44  93 N17       29.95F
PIERRE         LGT RAIN  47  46  97 NW17      29.85S FOG
CUSTER         CLOUDY    37  33  85 N20G33    29.93F
ELLSWORTH AFB  LGT RAIN  45  45 100 N22G29    29.95F
PHILIP         CLOUDY    47  43  86 N10       29.90F
PINE RIDGE     CLOUDY    47  42  83 N8        29.94S
SPEARFISH      LGT RAIN  43  41  93 NW16G24   30.06S
WINNER         CLOUDY    53  50  89 NW12      29.85R FOG
$$

SDZ004>011-016>023-039-040-190500-
NORTHEAST SOUTH DAKOTA

CITY           SKY/WX    TMP DP  RH WIND       PRES   REMARKS
ABERDEEN       CLOUDY    52  50  93 SW7       29.81F
WATERTOWN      CLOUDY    54  51  90 E10       29.79F
BROOKINGS      CLOUDY    55  54  94 S7        29.80F
SISSETON         N/A     54  53  97 SE3       29.83F
$$

SDZ017-020-022-023-036>040-048>070-190500-
SOUTHEAST SOUTH DAKOTA

CITY           SKY/WX    TMP DP  RH WIND       PRES   REMARKS
SIOUX FALLS    CLOUDY    57  55  93 SE6       29.80F
HURON          CLOUDY    54  54 100 CALM      29.79F FOG
CHAMBERLAIN    LGT RAIN  52  52 100 NW5       29.83S
MITCHELL       CLOUDY    56  55  97 W3        29.80F FOG
YANKTON        CLOUDY    55  54  94 E3        29.79F VSB 1/4
$$

ABBREVIATIONS USED IN REMARKS
   TC - TEMPERATURE IN CELSIUS
  WCI - WIND CHILL INDEX
   HX - HEAT INDEX
  VSB - VISIBILITY



USA.gov is the U.S. government's official web portal to all federal, state and local government web resources and services.